{"data":{"norad_id":53189,"intl_designator":"2022-084A","name":"STARLINK-4391","alt_names":[],"object_type":"PAYLOAD","status":"ACTIVE","operator":null,"country":"US","launch_date":"2022-07-22","launch_site_code":"AFWTR","launch_vehicle":null,"mission":null,"orbit_class":"UNKNOWN","rcs_meters":null,"size_class":null,"mass_kg":null,"dimensions":null,"purposes":["comms"],"wikipedia_slug":null,"has_3d_model":false,"image_url":null,"decayed_at":null,"tle_current":{"epoch":"2026-05-25T02:48:56.383200Z","epoch_age_seconds":64879,"freshness":"FRESH","line1":"1 53189U 22084A   26145.11731925  .00000225  00000+0  19654-4 0  9996","line2":"2 53189  97.4487 206.1405 0001643 111.6783 248.4619 15.05656626211556","mean_motion":15.05656626,"eccentricity":0.0001643,"inclination_deg":97.4487,"raan_deg":206.1405,"arg_perigee_deg":111.6783,"mean_anomaly_deg":248.4619,"bstar":1.9654e-5,"rev_number":21155,"period_min":95.639336030126,"perigee_km":548.35262026317,"apogee_km":550.62903876795,"semimajor_km":6927.6278295156,"source":"CELESTRAK","updated_at":"2026-05-25T13:38:17.327173Z"}}}